Regional Weather Roundup
Issued by NWS

Home | Current Version | Previous Version | Text Only | Print | Product List | Glossary Off
Versions: 1 2 3 4 5 6 7 8 9 10 11 12 13 14 15 16 17 18 19 20 21 22 23 24 25 26 27 28 29 30 31 32 33 34 35 36 37 38 39 40 41 42 43 44 45 46 47 48 49 50

000
ASUS43 KMPX 250810
RWRMN
WEATHER ROUNDUP FOR MINNESOTA
NATIONAL WEATHER SERVICE TWIN CITIES/CHANHASSEN MN
200 AM CST SUN FEB 25 2018


NOTE: "FAIR" INDICATES FEW OR NO CLOUDS BELOW 12,000 FEET WITH NO
SIGNIFICANT WEATHER AND/OR OBSTRUCTIONS TO VISIBILITY. N/A MEANS
CURRENT SKY AND/OR WEATHER CONDITIONS ARE NOT AVAILABLE.

MNZ060>063-068>070-250900-
   Twin Cities Metro

CITY           SKY/WX    TMP DP  RH WIND       PRES   REMARKS
TWIN CITIES    CLOUDY    18  16  92 W15       29.52R WCI   4
ST PAUL        LGT SNOW  21  17  84 SW15      29.53R FOG     WCI   8
CRYSTAL        CLOUDY    19  14  81 SW16      29.50R WCI   4
BLAINE         LGT SNOW  23  21  93 SW10G18   29.49R WCI  12
LAKEVILLE      CLOUDY    18  16  93 W15G22    29.54R FOG     WCI   3
EDEN PRAIRIE   CLOUDY    18  12  77 W15G25    29.52R WCI   4
SOUTH ST PAUL  MOCLDY    20  17  85 W9        29.52R WCI  10
LAKE ELMO      LGT SNOW  23  19  86 SW13G22   29.50R WCI  11
$$
MNZ001>005-007-008-013>017-022>024-027-028-250900-
   Northwest Minnesota

CITY           SKY/WX    TMP DP  RH WIND       PRES   REMARKS
BEMIDJI        FLURRIES  19  17  92 W6        29.41F WCI  10
HALLOCK        CLOUDY    18  16  93 W5        29.51F WCI  11
ROSEAU         LGT SNOW  19  16  86 N3        29.47F
WARROAD        LGT SNOW  19  16  86 NE7       29.46F WCI  10
THIEF RVR FALL FLURRIES  17  15  92 N3        29.48F
CROOKSTON      MOCLDY    16  12  86 NW12      29.52S WCI   3
FOSSTON        CLOUDY    16  14  93 W6        29.47S WCI   7
DETROIT LAKES  CLOUDY    19  18  93 W6        29.48S WCI  11
MOORHEAD       CLOUDY    16  12  86 W5        29.53F WCI   9
PARK RAPIDS    CLOUDY    18  15  88 W10       29.42S WCI   6
MAHNOMEN       CLOUDY    17  15  93 W7        29.47S WCI   7
$$
MNZ006-009>011-018-025>026-250900-
   North Central Minnesota

CITY           SKY/WX    TMP DP  RH WIND       PRES   REMARKS
BAUDETTE       LGT SNOW  20  18  92 N10       29.42F FOG     WCI   9
FLAG ISLAND    LGT SNOW  19  18  93 N9        29.46F WCI   9
INTL FALLS     LGT SNOW  23  21  92 NE6       29.38F FOG     WCI  16
WASKISH        LGT SNOW  21  19  93 CALM      29.40F
LONGVILLE      LGT SNOW  19  18  93 NW5       29.39F WCI  13
GRAND RAPIDS   LGT SNOW  21  19  93 W7        29.37F FOG     WCI  13
CRANE LAKE     LGT SNOW  21  19  93 CALM      29.38F
ORR            LGT SNOW  21  18  86 CALM      29.32F
COOK           LGT SNOW  21  19  93 CALM      29.33F VSB 1
WALKER         CLOUDY    18  16  90 W6        29.41S WCI  10
$$
MNZ012-019>021-037-250900-
   Northeast Minnesota

CITY           SKY/WX    TMP DP  RH WIND       PRES   REMARKS
DULUTH         LGT SNOW  28  25  88 SE7       29.30F VSB 3/4 WCI  21
ELY            LGT SNOW  25  25 100 CALM      29.31F
HIBBING        LGT SNOW  22  21  96 NW5       29.32F FOG     WCI  16
EVELETH        LGT SNOW  25  23  93 CALM      29.33F
DULUTH HARBOR  LGT SNOW  28  28 100 E13       29.35F WCI  18
TWO HARBORS    LGT SNOW  30  27  86 E10       29.30F WCI  21
SILVER BAY     LGT SNOW  28  28 100 E12       29.31F WCI  18
GRAND MARAIS     N/A     31  29  92 E25G31    29.36F WCI  17
G MARAIS ARPRT MIX PCPN  25  19  80 E15G22    29.30F WCI  12
$$
MNZ029>031-032-039>041-046>048-054>057-064-250900-
   West Central Minnesota

CITY           SKY/WX    TMP DP  RH WIND       PRES   REMARKS
FERGUS FALLS   CLOUDY    12  10  92 W9        29.54S WCI   0
WHEATON        CLEAR     16  12  86 W5        29.58S WCI   9
MORRIS         CLOUDY    14  10  85 W12       29.54F WCI   0
ALEXANDRIA     CLOUDY    16  15  96 W17       29.50R FOG     WCI   0
ELBOW LAKE     CLOUDY    13  11  94 NW9       29.54S WCI   1
WADENA         MIX PCPN  16  16 100 W8        29.46R WCI   5
GLENWOOD       CLOUDY    16  14  93 W16       29.52R FOG     WCI   0
APPLETON       CLOUDY    16  12  86 W12       29.58S WCI   3
BENSON         CLOUDY    10   7  85 NW9       29.57S WCI  -2
ORTONVILLE     MOCLDY    18  12  79 W9        29.58S WCI   6
MADISON        PTCLDY    18  14  86 W10G18    29.60S WCI   6
WILLMAR        CLOUDY    12  10  92 W15G22    29.58R WCI  -4
$$
MNZ033>034-036-042>043-049>051-058-059-250900-
   Central Minnesota

CITY           SKY/WX    TMP DP  RH WIND       PRES   REMARKS
ST CLOUD       CLOUDY    21  18  88 W14       29.47R FOG     WCI   8
SAUK CENTRE    CLOUDY    18  16  93 W23G29    29.50R WCI   1
PAYNESVILLE    CLOUDY    17  17  99 W18       29.52R FOG     WCI   0
AITKIN         CLOUDY    19  18  93 W3        29.37F
PINE RIVER     FLURRIES  18  16  93 W3        29.45S
BRAINERD       CLOUDY    21  17  84 W9        29.42R WCI  11
STAPLES        CLOUDY    18  16  93 W10       29.45R WCI   6
LONG PRAIRIE   FAIR      18  16  93 SW12      29.48R WCI   5
LITTLE FALLS   CLOUDY    21  16  79 W8        29.46R WCI  12
LITCHFIELD     CLOUDY    14  12  92 W13       29.54R WCI   0
BUFFALO        CLOUDY    17  14  86 SW10G17   29.52R WCI   5
MAPLE LAKE     CLOUDY    18  16  90 SW9       29.51R WCI   7
HUTCHINSON     CLOUDY    15  13  91 W18       29.56R FOG     WCI  -2
$$
MNZ037-044-045-052-053-250900-
   East Central Minnesota

CITY           SKY/WX    TMP DP  RH WIND       PRES   REMARKS
PRINCETON      LGT SNOW  25  21  86 SW12      29.44R WCI  14
CAMBRIDGE      LGT SNOW  27  21  80 SW8       29.44R WCI  18
RUSH CITY      LGT SNOW  26  24  89 W10G16    29.42R WCI  16
MOOSE LAKE     LGT SNOW  23  21  93 W3        29.35R
HINCKLEY       LGT SNOW  27  25  93 W8        29.39S WCI  18
CLOQUET        LGT SNOW  27  25  93 CALM      29.32F
MCGREGOR       CLOUDY    23  23 100 W5        29.37S WCI  17
$$
MNZ071>073-080-081-089-090-097-098-250900-
   Southwest Minnesota

CITY           SKY/WX    TMP DP  RH WIND       PRES   REMARKS
MONTEVIDEO     PTCLDY    12  10  92 NW8       29.58S WCI   1
GRANITE FALLS  PTCLDY    10   8  89 SW13      29.62R WCI  -5
CANBY          CLEAR     18  14  86 SW17      29.61R FOG     WCI   3
MARSHALL       PTCLDY    15  12  88 W16       29.61R WCI  -1
REDWOOD FALLS  PTCLDY    13  10  88 W14       29.60R WCI  -2
OLIVIA         CLOUDY    16  12  86 W14       29.58R WCI   1
PIPESTONE      MOCLDY    12  10  92 W14       29.64S WCI  -3
WORTHINGTON    LGT SNOW  16  12  86 W25G33    29.64S FOG     WCI  -3
JACKSON        CLOUDY    18  14  86 W23       29.64R FOG     WCI   0
TRACY          PTCLDY    18  15  90 W14G20    29.61R WCI   4
SLAYTON        CLOUDY    15  13  92 W18G30    29.62S FOG     WCI  -2
$$
MNZ065>067-074>077-082>085-091>093-250900-
   South Central Minnesota

CITY           SKY/WX    TMP DP  RH WIND       PRES   REMARKS
MANKATO        FLURRIES  18  14  84 W21       29.59R WCI   1
NEW ULM        PTCLDY    14  10  85 W15       29.60R WCI  -1
ST JAMES       CLEAR     16  12  86 SW17G25   29.63R FOG     WCI   0
FAIRMONT       LGT SNOW  16  13  88 W29       29.64R FOG     WCI  -4
GLENCOE        CLOUDY    16  16  99 W13G23    29.55R FOG     WCI   3
FARIBAULT      CLOUDY    19  16  86 SW23G30   29.57R WCI   2
OWATONNA       CLOUDY    19  16  86 W25       29.57R FOG     WCI   2
WASECA         CLOUDY    19  16  86 W22       29.61R FOG     WCI   3
ALBERT LEA     CLOUDY    18  14  86 W9G17     29.59S WCI   6
$$
MNZ078>079-086>088-094>096-250900-
   Southeast Minnesota

CITY           SKY/WX    TMP DP  RH WIND       PRES   REMARKS
ROCHESTER      CLOUDY    20  17  88 W29G38    29.55R FOG     WCI   1
RED WING       MIX PCPN  21  18  86 W12G21    29.53R WCI   9
STANTON        CLOUDY    22  18  83 W23       29.54R WCI   6
DODGE CENTER   CLOUDY    19  16  86 W21G26    29.55R FOG     WCI   3
WINONA         CLOUDY    25  19  80 W9G20     29.55R WCI  15
AUSTIN         CLOUDY    18  16  93 W12G28    29.59R FOG     WCI   5
PRESTON        CLOUDY    20  17  86 W16G22    29.57R WCI   6
$$
ABBREVIATIONS USED IN REMARKS
   TC - TEMPERATURES IN CELSIUS
  WCI - WIND CHILL INDEX
   HX - HEAT INDEX
  VSB - VISIBILITY
$$



USA.gov is the U.S. government's official web portal to all federal, state and local government web resources and services.